Weather reports worldwide

Advertisment
Charleville, France (7075): temperature & dewpoint: 12.01.2018 07:00:00 - 18.01.2018 07:00:00 (CET)Charleville, France (7075): temperature 5cm: 12.01.2018 07:00:00 - 18.01.2018 07:00:00 (CET)Charleville, France (7075): temperature -20cm & temperature -100cm: 12.01.2018 07:00:00 - 18.01.2018 07:00:00 (CET)Charleville, France (7075): wind speed & gusts: 12.01.2018 07:00:00 - 18.01.2018 07:00:00 (CET)Charleville, France (7075): wind direction: 12.01.2018 07:00:00 - 18.01.2018 07:00:00 (CET)Charleville, France (7075): reduced air pressure: 12.01.2018 07:00:00 - 18.01.2018 07:00:00 (CET)Charleville, France (7075): visibility: 12.01.2018 07:00:00 - 18.01.2018 07:00:00 (CET)Charleville, France (7075): sunshine duration: 12.01.2018 07:00:00 - 18.01.2018 07:00:00 (CET)Charleville, France (7075): precipitation: 12.01.2018 07:00:00 - 18.01.2018 07:00:00 (CET)
Date & Time tt [°C] td [°C] tt 5cm [°C] tt -20cm [°C] tt -100cm [°C] ff [km/h] ff [kn] fx [km/h] fx [kn] dd ppp [hPa] vv [km] sd [min] rr [mm]
18.01.2018 07:00:00 7,5 6,1 5,7 5,3 8,3 26 14 54 29 SW 1000,8 8 0 0,8
18.01.2018 06:00:00 6,2 5,2 4,5 5,3 8,2 20 11 45 25 SSW 1002,0 4,0 0 2,0
18.01.2018 05:00:00 5,1 3,8 3,8 5,3 8,3 22 12 44 24 SSW 1003,3 8 0 2,3
18.01.2018 04:00:00 4,5 2,8 3,8 5,3 8,3 21 11 54 29 SSW 1005,9 9 0 3,0
18.01.2018 03:00:00 4,6 2,9 3,7 5,3 8,3 18 10 39 21 SSW 1007,8 9 0 1,2
18.01.2018 02:00:00 4,4 2,6 3,8 5,3 8,3 14 8 40 22 SSW 1009,5 10 0 0,6
18.01.2018 01:00:00 4,6 2,6 3,8 5,3 8,3 20 11 41 22 SW 1011,2 12 0 0,2
18.01.2018 00:00:00 4,8 2,3 3,6 5,4 8,3 16 9 37 20 SW 1011,9 20 0 0,0
17.01.2018 23:00:00 4,6 2,0 3,3 5,4 8,3 16 8 40 21 SW 1012,4 20 0 0,2
17.01.2018 22:00:00 4,1 1,3 2,0 5,4 8,3 13 7 26 14 SW 1012,6 20 0 0,0
17.01.2018 21:00:00 3,4 1,0 2,3 5,4 8,3 10 5 35 19 W 1012,7 20 0 0,2
17.01.2018 20:00:00 3,7 0,9 1,9 5,4 8,3 18 10 48 26 WSW 1012,8 20 0 0,0
17.01.2018 19:00:00 4,2 0,7 2,8 5,4 8,3 18 10 40 21 WSW 1012,5 15 0 0,2
17.01.2018 18:00:00 5,4 0,6 3,1 5,4 8,3 14 8 35 19 WSW 1012,2 20 0 0,0
17.01.2018 17:00:00 4,7 0,6 2,9 5,4 8,3 11 6 73 39 W 1011,8 20 0 0,2
17.01.2018 16:00:00 5,7 -0,4 5,0 5,4 8,3 30 16 60 32 W 1011,0 20 7 0,0
17.01.2018 15:00:00 6,3 -0,5 6,1 5,3 8,3 35 19 61 33 W 1009,9 20 27 0,0
17.01.2018 14:00:00 6,1 0,0 6,3 5,3 8,3 30 16 57 31 W 1009,4 20 34 0,0
17.01.2018 13:00:00 5,6 -0,1 4,7 5,4 8,3 27 15 60 32 W 1009,0 20 22 0,0
17.01.2018 12:00:00 4,8 -0,2 4,6 5,4 8,3 27 15 51 27 W 1008,5 20 21 0,0
17.01.2018 11:00:00 4,2 -0,8 2,6 5,4 8,3 22 12 46 25 W 1007,8 20 40 0,0
17.01.2018 10:00:00 3,2 -1,0 1,7 5,5 8,3 23 12 43 23 W 1006,9 20 4 0,0
17.01.2018 09:00:00 2,7 -0,8 0,9 5,5 8,3 23 12 47 26 W 1005,4 20 0 0,0
17.01.2018 08:00:00 1,9 -0,5 0,9 5,6 8,3 27 15 54 29 W 1003,6 5 0 0,6
17.01.2018 07:00:00 2,4 0,0 1,6 5,6 8,3 18 10 46 25 W 1002,1 17 0 0,2
17.01.2018 06:00:00 2,8 -0,3 1,8 5,6 8,4 25 14 54 29 W 1001,2 20 0 0,0
17.01.2018 05:00:00 2,9 -0,4 1,9 5,7 8,3 27 14 57 31 W 1000,1 20 0 0,0
17.01.2018 04:00:00 3,6 0,5 2,6 5,7 8,3 23 12 47 25 W 999,3 20 0 0,0
17.01.2018 03:00:00 3,8 1,0 2,7 5,7 8,4 21 11 43 23 W 998,7 20 0 0,0
17.01.2018 02:00:00 4,0 1,5 2,9 5,7 8,4 20 11 45 25 W 998,2 20 0 0,0
17.01.2018 01:00:00 3,3 1,7 2,1 5,8 8,4 16 9 50 27 W 998,0 10 0 0,8
17.01.2018 00:00:00 2,5 1,2 2,0 5,8 8,4 10 6 52 28 W 998,4 15 0 1,8
16.01.2018 23:00:00 3,2 1,9 2,4 5,9 8,4 9 5 27 15 W 998,2 19 0 0,6
16.01.2018 22:00:00 3,4 1,6 2,8 5,9 8,4 15 8 39 21 W 998,8 17 0 1,6
16.01.2018 21:00:00 5,3 2,5 3,9 5,9 8,4 20 11 43 23 SW 998,8 20 0 0,0
16.01.2018 20:00:00 4,5 2,4 2,7 5,9 8,4 16 8 32 17 SW 999,2 20 0 0,0
16.01.2018 19:00:00 3,8 1,5 2,0 5,9 8,4 9 5 26 14 WSW 999,3 20 0 0,0
16.01.2018 18:00:00 4,5 1,0 3,0 5,9 8,4 12 7 44 24 W 999,4 20 0 0,0
16.01.2018 17:00:00 5,1 1,6 4,6 5,9 8,4 22 12 45 25 W 1000,1 20 2 0,0
16.01.2018 16:00:00 6,5 1,8 5,9 5,8 8,4 19 10 45 25 WSW 999,3 20 0 0,0
16.01.2018 15:00:00 6,5 2,0 6,2 5,8 8,4 19 10 44 24 W 999,3 20 0 0,0
16.01.2018 14:00:00 6,6 2,1 6,7 5,8 8,4 21 12 55 30 W 999,5 20 13 0,0
16.01.2018 13:00:00 7,5 2,0 7,4 5,7 8,4 27 15 53 29 W 999,7 20 0 0,0
16.01.2018 12:00:00 7,7 2,8 6,7 5,7 8,4 24 13 42 23 W 999,3 20 28 0,0
16.01.2018 11:00:00 7,0 3,8 5,2 5,7 8,4 19 11 54 29 W 999,0 20 13 0,0
16.01.2018 10:00:00 6,1 2,4 4,0 5,7 8,4 23 12 44 24 W 998,5 20 4 0,2
16.01.2018 09:00:00 4,6 2,9 4,1 5,7 8,4 25 14 46 25 WNW 998,9 14 0 3,0
16.01.2018 08:00:00 7,3 4,4 5,9 5,7 8,4 19 10 43 23 WSW 996,8 20 0 0,0
16.01.2018 07:00:00 6,8 4,5 5,7 5,6 8,4 18 10 48 26 WSW 996,8 20 0 0,0
16.01.2018 06:00:00 7,1 4,6 5,9 5,7 8,5 23 12 49 26 SW 996,9 20 0 0,0
16.01.2018 05:00:00 7,3 4,8 6,1 5,6 8,4 24 13 47 26 SW 997,2 20 0 0,2
16.01.2018 04:00:00 7,3 4,8 6,5 5,6 8,4 22 12 51 28 SW 997,7 18 0 0,0
16.01.2018 03:00:00 7,4 4,7 5,7 5,5 8,4 23 12 40 22 SW 998,4 20 0 0,0
16.01.2018 02:00:00 7,3 4,9 5,9 5,5 8,4 16 9 37 20 SW 998,6 20 0 0,4
16.01.2018 01:00:00 7,2 4,3 5,9 5,5 8,5 23 12 63 34 W 999,9 10 0 0,2
16.01.2018 00:00:00 7,6 4,7 6,2 5,4 8,4 19 11 49 27 WSW 999,5 20 0 0,0
15.01.2018 23:00:00 7,8 4,9 6,6 5,4 8,5 23 12 61 33 WSW 998,9 20 0 0,2
15.01.2018 22:00:00 8,7 6,3 7,3 5,4 8,5 22 12 53 29 WSW 998,3 20 0 0,2
15.01.2018 21:00:00 8,2 6,5 6,5 5,3 8,4 21 12 43 23 WSW 998,1 15 0 1,4
15.01.2018 20:00:00 7,1 5,9 5,7 5,3 8,5 19 10 46 25 SSW 998,1 6 0 1,0
15.01.2018 19:00:00 6,2 4,8 5,1 5,2 8,5 21 11 50 27 SSW 999,0 20 0 2,4
15.01.2018 18:00:00 5,7 4,3 4,7 5,2 8,5 22 12 57 31 S 1000,1 4,7 0 3,4
15.01.2018 17:00:00 5,5 3,7 4,8 5,1 8,5 29 16 62 34 SSW 1001,6 6 0 3,9
15.01.2018 16:00:00 5,9 4,1 5,1 5,1 8,5 31 17 58 31 S 1003,2 7 0 3,4
15.01.2018 15:00:00 5,8 4,0 5,1 5,1 8,5 23 12 52 28 S 1005,0 5 0 0,6
15.01.2018 14:00:00 6,3 3,5 5,5 5,0 8,5 21 12 58 31 SSW 1007,3 20 0 0,0
15.01.2018 13:00:00 6,1 3,6 5,3 5,0 8,4 27 14 51 28 S 1008,7 20 0 0,0
15.01.2018 12:00:00 5,8 3,8 5,0 5,0 8,5 19 10 45 25 S 1011,4 17 0 0,0
15.01.2018 11:00:00 5,4 3,9 4,3 5,0 8,5 20 11 39 21 S 1012,6 12 0 0,0
15.01.2018 10:00:00 4,6 3,6 3,8 5,0 8,5 14 7 33 18 S 1013,4 6 0 0,0
15.01.2018 09:00:00 3,7 3,0 3,1 5,0 8,5 9 5 20 11 S 1014,6 7 0 0,0
15.01.2018 08:00:00 3,1 2,7 2,9 5,0 8,5 11 6 18 10 SSE 1015,5 2,4 0 0,0
15.01.2018 07:00:00 3,0 2,4 2,7 5,0 8,5 8 5 16 8 SSE 1016,4 3,4 0 0,0
15.01.2018 06:00:00 2,8 2,2 1,7 5,1 8,5 6 3 18 10 S 1016,8 2,3 0 0,0
15.01.2018 05:00:00 1,7 0,4 0,9 5,0 8,5 4 2 10 6 S 1017,4 7 0 0,0
15.01.2018 04:00:00 1,1 -0,1 -1,1 5,1 8,5 8 4 14 8 ESE 1017,7 6 0 0,0
15.01.2018 03:00:00 0,5 -1,0 -1,0 5,1 8,5 7 4 20 11 ESE 1018,3 7 0 0,0
15.01.2018 02:00:00 1,3 -0,6 0,4 5,2 8,5 12 7 19 11 SE 1018,6 8 0 0,0
15.01.2018 01:00:00 1,9 -0,2 1,2 5,2 8,5 6 3 24 13 ESE 1019,7 9 0 0,0
15.01.2018 00:00:00 1,8 -0,3 1,1 5,2 8,5 16 9 24 13 ESE 1019,7 9 0 0,0
14.01.2018 23:00:00 1,9 -0,4 0,9 5,2 8,5 13 7 22 12 ESE 1020,0 9 0 0,0
14.01.2018 22:00:00 1,9 -0,4 0,9 5,3 8,5 11 6 21 11 ESE 1020,0 9 0 0,0
14.01.2018 21:00:00 2,4 0,0 1,2 5,3 8,5 14 7 21 12 ESE 1019,9 10 0 0,0
14.01.2018 20:00:00 2,6 0,2 -0,6 5,3 8,5 9 5 21 12 ESE 1020,2 10 0 0,0
14.01.2018 19:00:00 0,7 -0,3 -2,6 5,4 8,5 11 6 15 8 E 1019,9 7 0 0,0
14.01.2018 18:00:00 1,5 -0,7 -1,3 5,3 8,5 5 3 15 8 ESE 1019,8 11 0 0,0
14.01.2018 17:00:00 3,9 0,6 2,6 5,3 8,5 10 6 18 10 ESE 1019,3 12 29 0,0
14.01.2018 16:00:00 4,3 0,8 3,2 5,2 8,5 8 5 21 11 ESE 1019,2 13 14 0,0
14.01.2018 15:00:00 4,8 0,9 5,1 5,2 8,5 14 7 24 13 SE 1018,8 14 0 0,0
14.01.2018 14:00:00 5,1 1,0 7,2 5,2 8,5 13 7 29 15 ESE 1019,1 14 48 0,0
14.01.2018 13:00:00 4,6 0,7 6,3 5,2 8,5 13 7 28 15 ESE 1019,4 13 36 0,0
14.01.2018 12:00:00 4,0 0,5 3,9 5,3 8,5 19 11 36 19 ESE 1019,6 12 51 0,0
14.01.2018 11:00:00 2,8 0,2 2,4 5,3 8,5 23 12 35 19 ESE 1019,9 9 0 0,0
14.01.2018 10:00:00 2,0 -0,3 0,8 5,4 8,5 15 8 26 14 ESE 1019,8 8 48 0,0
14.01.2018 09:00:00 1,0 -0,8 -1,3 5,4 8,5 13 7 22 12 ESE 1019,2 8 0 0,0
14.01.2018 08:00:00 0,3 -1,5 -1,3 5,5 8,5 9 5 17 9 ESE 1019,1 7 0 0,0
14.01.2018 07:00:00 1,0 -0,9 -0,6 5,6 8,5 9 5 23 12 ESE 1018,7 8 0 0,0
14.01.2018 06:00:00 1,2 -0,7 -0,1 5,7 8,5 12 6 23 13 ESE 1018,5 8 0 0,0
14.01.2018 05:00:00 1,4 -0,5 -0,1 5,7 8,5 13 7 22 12 ESE 1018,5 9 0 0,0
14.01.2018 04:00:00 1,6 -0,5 -0,1 5,8 8,5 13 7 22 12 ESE 1018,8 10 0 0,0
14.01.2018 03:00:00 1,6 -0,7 -0,2 5,9 8,5 12 6 22 12 ESE 1018,7 10 0 0,0
14.01.2018 02:00:00 1,7 -0,7 -0,4 6,0 8,5 10 6 21 12 ESE 1018,7 11 0 0,0
14.01.2018 01:00:00 2,1 -0,7 -0,5 6,0 8,5 9 5 16 9 ESE 1019,2 12 0 0,0
14.01.2018 00:00:00 1,9 -0,7 -3,8 6,1 8,5 7 4 17 9 SE 1019,4 13 0 0,0
13.01.2018 23:00:00 0,6 -1,6 -3,6 6,1 8,5 4 2 11 6 SE 1019,6 12 0 0,0
13.01.2018 22:00:00 1,1 -0,8 -2,9 6,1 8,5 7 4 13 7 E 1019,7 13 0 0,0
13.01.2018 21:00:00 2,1 -0,5 -0,4 6,2 8,5 10 6 21 11 E 1020,0 15 0 0,0
13.01.2018 20:00:00 4,2 0,3 2,7 6,2 8,5 13 7 21 11 ESE 1020,3 17 0 0,0
13.01.2018 19:00:00 4,8 0,6 4,1 6,2 8,5 11 6 22 12 ESE 1020,5 19 0 0,0
13.01.2018 18:00:00 4,4 0,5 3,9 6,2 8,5 13 7 28 15 E 1020,6 20 0 0,0
13.01.2018 17:00:00 4,4 0,2 4,1 6,2 8,5 21 12 36 20 E 1021,0 20 0 0,0
13.01.2018 16:00:00 4,6 0,4 4,5 6,2 8,5 20 11 34 19 ESE 1021,5 19 0 0,0
13.01.2018 15:00:00 4,7 0,3 5,1 6,2 8,5 24 13 40 22 ESE 1021,7 19 0 0,0
13.01.2018 14:00:00 4,6 0,4 4,8 6,2 8,5 28 15 41 22 ESE 1022,4 16 0 0,0
13.01.2018 13:00:00 4,2 0,9 4,1 6,2 8,5 23 12 39 21 ESE 1023,1 12 0 0,0
13.01.2018 12:00:00 3,9 0,6 4,0 6,2 8,5 23 12 34 18 ESE 1024,5 15 0 0,0
13.01.2018 11:00:00 3,9 0,4 3,6 6,2 8,5 19 11 34 19 ESE 1024,7 17 0 0,0
13.01.2018 10:00:00 3,9 0,9 3,5 6,3 8,5 19 10 30 16 ESE 1024,4 14 0 0,0
13.01.2018 09:00:00 3,9 1,3 3,4 6,3 8,5 11 6 20 11 ESE 1024,1 13 0 0,0
13.01.2018 08:00:00 3,9 1,4 3,3 6,4 8,5 11 6 23 12 ESE 1024,1 12 0 0,0
13.01.2018 07:00:00 3,7 2,5 3,1 6,4 8,5 8 4 16 9 SE 1024,3 9 0 0,0
13.01.2018 06:00:00 3,0 2,7 1,4 6,4 8,5 8 5 15 8 ESE 1024,3 7 0 0,0
13.01.2018 05:00:00 1,1 0,7 0,8 6,5 8,5 1 1 3 2 SSE 1025,0 3,6 0 0,0
13.01.2018 04:00:00 0,4 0,0 0,1 6,5 8,5 1 1 5 3 ENE 1025,5 0,3 0 0,0
13.01.2018 03:00:00 0,0 -0,4 -0,7 6,6 8,5 1 1 4 2 S 1025,8 0,2 0 0,0
13.01.2018 02:00:00 -0,3 -0,7 -0,7 6,7 8,5 1 1 4 2 NE 1026,0 0,1 0 0,0
13.01.2018 01:00:00 0,1 -0,3 -1,9 6,7 8,5 4 2 4 2 WNW 1026,3 0,2 0 0,0
13.01.2018 00:00:00 1,2 0,8 -1,0 6,8 8,5 1 1 5 3 WNW 1026,5 2,0 0 0,0
12.01.2018 23:00:00 1,8 1,4 0,5 6,8 8,5 3 1 5 3 WSW 1026,7 3,0 0 0,0
12.01.2018 22:00:00 1,5 1,1 0,1 6,9 8,5 1 1 5 3 WNW 1026,9 2,9 0 0,0
12.01.2018 21:00:00 1,1 0,7 -2,4 6,9 8,5 2 1 4 2 WSW 1026,8 0,5 0 0,0
12.01.2018 20:00:00 0,8 0,2 -2,1 7,0 8,5 3 2 4 2 W 1026,6 2,3 0 0,0
12.01.2018 19:00:00 2,2 1,2 -1,4 7,0 8,5 2 1 5 3 ESE 1026,1 1,5 0 0,0
12.01.2018 18:00:00 4,4 3,2 0,8 6,9 8,5 2 1 8 4 WSW 1026,0 4,2 0 0,0
12.01.2018 17:00:00 6,6 3,9 3,8 6,9 8,5 5 3 10 5 E 1025,6 9 23 0,0
12.01.2018 16:00:00 8,2 4,8 7,7 6,8 8,5 2 1 8 4 NNE 1025,6 10 15 0,0
12.01.2018 15:00:00 8,2 4,6 8,0 6,8 8,5 3 1 11 6 N 1025,6 9 5 0,0
12.01.2018 14:00:00 7,7 4,6 7,9 6,8 8,5 7 4 15 8 NE 1025,6 9 0 0,0
12.01.2018 13:00:00 7,4 4,7 7,1 6,8 8,5 5 3 10 6 ENE 1026,0 7 0 0,0
12.01.2018 12:00:00 6,8 4,6 6,5 6,8 8,5 3 2 7 4 NNW 1026,6 7 0 0,0
12.01.2018 11:00:00 6,4 4,9 5,8 6,8 8,5 3 2 6 3 N 1026,7 4,8 0 0,0
12.01.2018 10:00:00 5,7 4,8 5,2 6,8 8,5 1 1 4 2 NNW 1026,3 4,2 0 0,0
12.01.2018 09:00:00 5,5 4,5 4,8 6,8 8,5 2 1 5 3 ESE 1025,8 4,1 0 0,0
12.01.2018 08:00:00 5,4 4,2 4,4 6,8 8,5 4 2 8 5 W 1025,4 5 0 0,0
12.01.2018 07:00:00 5,5 4,0 4,6 6,8 8,5 7 4 10 5 WNW 1024,9 6 0 0,0

tt = temperature
td = dewpoint
tt 5cm = temperature 5cm
tt -20cm = temperature -20cm
tt -100cm = temperature -100cm
ff = wind speed
fx = gusts
dd = wind direction
ppp = reduced air pressure
vv = visibility
sd = sunshine duration
rr = precipitation

Next stations